Terminal Aerodrome Forecast
Issued by NWS

Current Version | Previous Version | Graphics & Text | Print | Product List | Glossary On
Versions: 1 2 3 4 5 6 7 8 9 10 11 12 13 14 15 16
960
FTUS41 KILN 200531
TAFLCK
TAF
KLCK 200531Z 2006/2106 18004KT P6SM FEW250
     FM201400 16005KT P6SM FEW250
     FM210000 00000KT P6SM SCT250=

USA.gov is the U.S. government's official web portal to all federal, state and local government web resources and services.